TimeCST,TemperatureF,Dew PointF,Humidity,Sea Level PressureIn,VisibilityMPH,Wind Direction,Wind SpeedMPH,Gust SpeedMPH,PrecipitationIn,Events,Conditions,WindDirDegrees,DateUTC
12:52 AM,35.1,25.0,67,30.24,10.0,Calm,Calm,-,N/A,,Clear,0,2013-03-01 06:52:00
1:52 AM,32.0,25.0,75,30.25,10.0,NNW,4.6,-,N/A,,Clear,340,2013-03-01 07:52:00
2:52 AM,30.0,24.1,79,30.24,10.0,SW,5.8,-,N/A,,Clear,220,2013-03-01 08:52:00
3:52 AM,33.1,25.0,72,30.23,10.0,Calm,Calm,-,N/A,,Clear,0,2013-03-01 09:52:00
4:52 AM,30.2,24.8,80,30.24,10.0,North,4.6,-,N/A,,Clear,10,2013-03-01 10:52:00
5:52 AM,30.9,25.0,79,30.25,10.0,ENE,6.9,-,N/A,,Scattered Clouds,60,2013-03-01 11:52:00
6:52 AM,30.9,27.0,85,30.27,10.0,North,9.2,-,N/A,,Mostly Cloudy,10,2013-03-01 12:52:00
7:52 AM,34.0,28.0,79,30.29,9.0,North,4.6,-,N/A,,Mostly Cloudy,360,2013-03-01 13:52:00
8:52 AM,37.0,28.9,73,30.31,9.0,NE,6.9,-,N/A,,Mostly Cloudy,40,2013-03-01 14:52:00
9:52 AM,37.9,28.9,70,30.31,10.0,East,4.6,-,N/A,,Mostly Cloudy,100,2013-03-01 15:52:00
10:52 AM,43.0,28.9,58,30.30,10.0,Variable,3.5,-,N/A,,Mostly Cloudy,0,2013-03-01 16:52:00
11:52 AM,46.0,30.9,56,30.29,10.0,NNE,3.5,-,N/A,,Scattered Clouds,30,2013-03-01 17:52:00
12:52 PM,48.9,30.0,48,30.26,10.0,Variable,4.6,-,N/A,,Partly Cloudy,0,2013-03-01 18:52:00
1:52 PM,52.0,28.9,41,30.25,10.0,NNW,9.2,-,N/A,,Partly Cloudy,340,2013-03-01 19:52:00
2:52 PM,53.1,30.0,41,30.24,10.0,NNE,13.8,20.7,N/A,,Partly Cloudy,20,2013-03-01 20:52:00
3:52 PM,50.0,30.9,48,30.25,10.0,NNE,17.3,26.5,N/A,,Mostly Cloudy,30,2013-03-01 21:52:00
4:52 PM,50.0,28.9,44,30.26,10.0,North,17.3,-,N/A,,Partly Cloudy,360,2013-03-01 22:52:00
5:52 PM,48.2,28.4,46,30.26,10.0,North,17.3,-,N/A,,Mostly Cloudy,350,2013-03-01 23:52:00
6:52 PM,42.8,26.6,53,30.28,10.0,North,10.4,-,N/A,,Clear,350,2013-03-02 00:52:00
7:52 PM,36.0,27.0,70,30.30,10.0,North,6.9,-,N/A,,Clear,360,2013-03-02 01:52:00
8:52 PM,35.6,28.4,75,30.31,10.0,North,9.2,-,N/A,,Clear,350,2013-03-02 02:52:00
9:52 PM,34.0,27.0,75,30.35,10.0,North,8.1,-,N/A,,Clear,350,2013-03-02 03:52:00
10:52 PM,30.9,27.0,85,30.36,10.0,North,6.9,-,N/A,,Clear,350,2013-03-02 04:52:00
11:52 PM,30.9,27.0,85,30.38,9.0,North,8.1,-,N/A,,Clear,360,2013-03-02 05:52:00